Weather in Zolskaya

Russia / Stavropol Krai     43°54′16″N   43°17′51″E
temp.,
°C
wind,
m/s
gust,
m/s
humid.,
%
clouds,
%
prec.,
mm/h
press.,
hPa
HPBL,
m
20 january, wed
wed2000:00−6sse229196 0.1 102446
03:00−7sse369082 0.1 1023155
06:00−8sw227345 0.0 102440
09:00−7wnw247772 0.0 1024199
12:00−4nw2469100 0.0 1024458
15:00−3nnw236980 0.0 1023863
18:00−5nw228696 0.1 102760
21:00−6wsw128798 0.1 102838
21 january, thu
thu2100:00−8wsw228235 0.0 102928
03:00−9ssw227618 0.0 103022
06:00−9wsw22700 0.0 103121
09:00−7wsw12700 0.0 103261
12:00−3sw02590 0.0 1031478
15:00−3ese11680 0.0 1030282
18:00−5s22760 0.0 103325
21:00−5ssw22650 0.0 103422
22 january, fri
fri2200:00−4ssw23570 0.0 103322
03:00−4sw23500 0.0 103321
06:00−3sw33550 0.0 103222
09:00−1sw33580 0.0 103235
12:00+3s24650 0.0 1029151
15:00+3sse24630 0.0 1028106
18:00−1s23600 0.0 102922
21:00−2s23610 0.0 102925
23 january, sat
sat2300:00−2s23560 0.0 102923
03:00−2s225533 0.0 102822
06:00−2sse2254100 0.0 102821
09:00−1sse235792 0.0 102845
12:00+2ese23570 0.0 1025162
15:00+2ese22630 0.0 1024163
18:00−2se11710 0.0 102621
21:00−2se11700 0.0 102621
24 january, sun
sun2400:00−2se11640 0.0 102521
03:00−2se11612 0.0 102521
06:00−2se116211 0.0 102421
09:00−1se22605 0.0 102338
12:00+2ese22580 0.0 1021147
15:00+2ese23650 0.0 1019195
18:00−1se23730 0.0 102130
21:00−1se23749 0.0 102048